Location: Unspecified
(40.7945°N, 0.0000°E)
Time: 23:01:41
(UTC+00:00)

Explorer 11/Cluster Stage 4 - Pass Details

Date: 29 January 2021
Orbit: 467 x 1257 km, 28.8° (Epoch: 25 February)

Event Time Altitude Azimuth Distance (km) Brightness Sun altitude
Rises 19:21:19 0° 234° (SW) 2,811 10.3 -24.2°
Reaches altitude 10° 19:23:57 10° 216° (SW) 2,029 9.2 -24.7°
Enters shadow 19:27:14 20° 172° (S) 1,610 8.1 -25.3°
